FW2316 Weather Reports


Display with metric or nautical units.
time (UTC)temp
F
wind
direction
speed
MPH
gust
MPH
rain 1hr
in
rain 24hr
in
rain mn
in
humidity
%
barometer
mb
20260903091511 51 126 1.0 6.0 0.00 0.27 0.27 90 1009.1
20260903091010 51 126 1.0 6.0 0.00 0.27 0.27 91 1009.2
20260903090510 51 138 1.0 3.0 0.00 0.27 0.27 92 1009.1
20260903090018 51 138 1.0 4.0 0.00 0.27 0.27 92 1009.2
20260903085509 50 138 2.0 4.0 0.00 0.27 0.27 93 1009.2
20260903085011 50 141 0.0 4.0 0.00 0.27 0.27 93 1009.3
20260903084509 50 141 1.0 4.0 0.00 0.27 0.27 94 1009.1
20260903084009 49 141 1.0 4.0 0.00 0.27 0.27 94 1009.2
20260903083509 49 141 1.0 4.0 0.00 0.27 0.27 93 1009.4
20260903083008 50 141 0.0 2.0 0.00 0.27 0.27 93 1009.4
20260903082512 50 141 0.0 2.0 0.00 0.27 0.27 93 1009.4
20260903081507 50 141 0.0 3.0 0.00 0.27 0.27 94 1009.2
20260903081008 50 141 0.0 3.0 0.00 0.27 0.27 94 1009.1
20260903080507 50 141 0.0 2.0 0.00 0.27 0.27 95 1009.2
20260903080006 50 141 1.0 2.0 0.00 0.27 0.27 95 1009.2
20260903075507 49 141 1.0 2.0 0.00 0.27 0.27 95 1009.2
20260903075006 49 141 0.0 0.0 0.00 0.27 0.27 95 1009.2
20260903074506 49 141 0.0 1.0 0.00 0.27 0.27 95 1009.2
20260903074005 49 141 0.0 1.0 0.00 0.27 0.27 95 1009.1
20260903073505 49 141 0.0 2.0 0.00 0.27 0.27 96 1009.2
20260903073008 49 141 0.0 2.0 0.00 0.27 0.27 96 1009.2
20260903072505 49 141 0.0 5.0 0.00 0.27 0.27 96 1009.1
20260903071505 49 141 0.0 2.0 0.00 0.27 0.27 96 1009.0
20260903071005 49 141 0.0 2.0 0.00 0.27 0.27 96 1009.0
20260903070504 49 141 0.0 0.0 0.00 0.27 0.27 96 1008.9
20260903070006 49 141 0.0 0.0 0.00 0.27 0.27 96 1009.0
20260903065505 49 141 0.0 0.0 0.00 0.27 0.27 97 1009.0
20260903065003 49 141 0.0 1.0 0.00 0.27 0.27 96 1009.0
20260903064503 49 141 0.0 1.0 0.00 0.27 0.27 97 1009.1
20260903064003 49 141 0.0 1.0 0.00 0.27 0.27 96 1009.0
20260903063504 49 141 0.0 2.0 0.00 0.27 0.27 96 1009.0
20260903063004 49 141 0.0 4.0 0.00 0.27 0.27 96 1009.0
20260903062502 49 141 0.0 4.0 0.00 0.27 0.27 96 1009.0
20260903061503 49 141 0.0 0.0 0.00 0.27 0.27 96 1009.1
20260903061002 49 141 0.0 0.0 0.00 0.27 0.27 96 1009.0
20260903060503 49 141 0.0 0.0 0.00 0.27 0.27 96 1009.0
20260903060008 49 141 0.0 0.0 0.00 0.27 0.27 96 1009.1
20260903055504 49 141 0.0 0.0 0.00 0.27 0.27 96 1009.1
20260903055001 49 141 0.0 0.0 0.00 0.27 0.27 96 1009.0
20260903054501 49 141 0.0 0.0 0.00 0.27 0.27 96 1009.1
20260903054100 50 141 0.0 0.0 0.00 0.27 0.27 96 1009.0
20260903053600 50 141 0.0 0.0 0.00 0.27 0.27 96 1009.1
20260903053059 50 141 0.0 1.0 0.00 0.27 0.27 96 1009.0
20260903052558 50 141 0.0 1.0 0.00 0.27 0.27 96 1009.0
20260903051606 50 141 0.0 0.0 0.00 0.27 0.27 95 1009.0
20260903051058 50 141 0.0 0.0 0.00 0.27 0.27 95 1008.9
20260903050601 50 141 0.0 0.0 0.00 0.27 0.27 95 1008.9
20260903050057 51 141 0.0 0.0 0.00 0.27 0.27 95 1008.9
20260903045556 51 141 0.0 0.0 0.00 0.27 0.27 95 1008.9
20260903045056 51 141 0.0 0.0 0.00 0.27 0.27 95 1008.9
20260903044559 51 141 0.0 2.0 0.00 0.27 0.27 95 1008.8
20260903044056 51 141 0.0 2.0 0.00 0.27 0.27 95 1008.7
20260903043554 52 141 0.0 2.0 0.00 0.27 0.27 95 1008.8
20260903043052 52 141 1.0 3.0 0.00 0.27 0.27 95 1008.7
20260903042552 52 141 0.0 3.0 0.00 0.27 0.27 95 1008.7
20260903041552 52 141 0.0 2.0 0.00 0.27 0.27 95 1008.6
20260903041051 52 141 0.0 0.0 0.00 0.27 0.27 95 1008.6
20260903040553 52 141 0.0 0.0 0.00 0.27 0.27 94 1008.5
20260903040101 52 141 0.0 1.0 0.00 0.27 0.27 94 1008.6
20260903035550 53 141 0.0 1.0 0.00 0.27 0.27 94 1008.5
20260903035049 53 141 0.0 1.0 0.00 0.27 0.27 94 1008.4
20260903034549 53 141 0.0 1.0 0.00 0.27 0.27 94 1008.3
20260903034048 53 141 0.0 1.0 0.00 0.27 0.27 93 1008.3
20260903033546 53 141 0.0 0.0 0.00 0.27 0.27 93 1008.2
20260903033046 54 141 0.0 0.0 0.00 0.27 0.27 92 1008.2
20260903032548 54 141 0.0 1.0 0.00 0.27 0.27 92 1008.2
20260903031545 54 142 0.0 1.0 0.00 0.27 0.27 92 1008.2
20260903031044 55 141 0.0 2.0 0.00 0.27 0.27 91 1008.1
20260903030546 55 141 0.0 5.0 0.00 0.27 0.27 91 1008.0
20260903030044 55 142 1.0 7.0 0.00 0.27 0.27 91 1007.9
20260903025545 56 146 2.0 7.0 0.00 0.27 0.27 91 1007.8
20260903025044 56 152 1.0 6.0 0.00 0.27 0.27 91 1007.8
20260903024544 56 155 1.0 6.0 0.00 0.27 0.27 91 1007.6
20260903024045 56 158 2.0 7.0 0.00 0.27 0.27 91 1007.7
20260903023543 56 153 2.0 7.0 0.01 0.27 0.27 91 1007.8
20260903023053 56 163 3.0 7.0 0.02 0.27 0.27 91 1007.7
20260903022544 56 154 1.0 7.0 0.03 0.27 0.27 91 1007.6
20260903021544 56 153 1.0 9.0 0.04 0.27 0.27 90 1007.6
20260903021044 56 141 2.0 9.0 0.04 0.27 0.27 91 1007.6
20260903020544 56 134 2.0 8.0 0.05 0.27 0.27 91 1007.6
20260903020043 56 138 1.0 4.0 0.07 0.27 0.27 91 1007.6
20260903015543 57 138 1.0 4.0 0.09 0.27 0.27 92 1007.6
20260903015044 56 138 1.0 5.0 0.10 0.27 0.27 92 1007.5
20260903014551 56 138 2.0 7.0 0.11 0.27 0.27 93 1007.4
20260903014042 56 142 2.0 9.0 0.12 0.27 0.27 93 1007.4
20260903013542 56 144 3.0 9.0 0.11 0.26 0.26 93 1007.3
20260903013049 56 162 3.0 14.0 0.11 0.26 0.26 93 1007.2
20260903012542 56 155 4.0 14.0 0.10 0.25 0.25 93 1007.4
20260903011546 56 168 3.0 13.0 0.09 0.24 0.24 93 1007.2
20260903011044 56 170 7.0 11.0 0.08 0.23 0.23 93 1007.1
20260903010546 56 188 7.0 14.0 0.07 0.22 0.22 92 1006.9
20260903010047 57 210 7.0 14.0 0.06 0.21 0.21 92 1007.0
20260903005543 57 240 5.0 11.0 0.04 0.19 0.19 92 1006.9
20260903005043 58 207 7.0 18.0 0.03 0.18 0.18 90 1006.9
20260903004543 59 222 9.0 17.0 0.01 0.16 0.16 89 1006.8
20260903004041 59 240 4.0 9.0 0.00 0.15 0.15 87 1006.5
20260903003541 59 154 2.0 5.0 0.00 0.15 0.15 88 1005.8
20260903003041 59 150 0.0 2.0 0.00 0.15 0.15 88 1005.4
20260903002540 59 150 0.0 3.0 0.01 0.15 0.15 89 1005.4
20260903001538 59 150 0.0 5.0 0.01 0.15 0.15 89 1005.5
20260903001036 59 150 0.0 6.0 0.01 0.15 0.15 89 1005.5
20260903000536 59 151 2.0 6.0 0.01 0.15 0.15 88 1005.4
20260903000037 59 153 1.0 9.0 0.01 0.15 0.15 89 1005.4
20260902235537 59 155 4.0 9.0 0.01 0.15 0.15 90 1005.4
20260902235036 59 126 2.0 8.0 0.02 0.15 0.15 91 1005.4
20260902234550 59 134 4.0 7.0 0.03 0.15 0.15 92 1005.5
20260902234036 59 93 2.0 5.0 0.03 0.15 0.15 92 1005.6
20260902233536 59 78 0.0 5.0 0.04 0.15 0.15 93 1005.4
20260902233038 58 80 0.0 2.0 0.05 0.15 0.15 93 1005.4
20260902232535 58 80 0.0 6.0 0.06 0.14 0.14 93 1005.4
20260902231542 58 78 1.0 10.0 0.07 0.14 0.14 94 1005.4
20260902231035 58 78 3.0 10.0 0.08 0.14 0.14 93 1005.3
20260902230535 58 61 4.0 12.0 0.08 0.14 0.14 93 1005.5
20260902230034 58 44 6.0 11.0 0.09 0.14 0.14 93 1005.3
20260902225534 58 54 2.0 7.0 0.10 0.14 0.14 93 1005.5
20260902225033 58 67 1.0 5.0 0.09 0.13 0.13 93 1005.8
20260902224539 58 69 2.0 6.0 0.09 0.13 0.13 93 1005.9
20260902224034 58 57 3.0 6.0 0.09 0.12 0.12 92 1006.0
20260902223534 58 360 1.0 5.0 0.08 0.11 0.11 92 1006.0
20260902223034 58 334 1.0 5.0 0.07 0.10 0.10 92 1006.0
20260902222535 58 296 0.0 4.0 0.07 0.09 0.09 91 1006.0
20260902221534 59 285 0.0 3.0 0.06 0.08 0.08 91 1006.0
20260902221034 59 284 0.0 3.0 0.06 0.07 0.07 91 1005.9
20260902220533 59 284 0.0 3.0 0.05 0.06 0.06 90 1005.8
20260902220036 59 281 0.0 2.0 0.05 0.05 0.05 89 1005.8
20260902215536 59 281 0.0 1.0 0.05 0.05 0.05 88 1006.0
20260902215032 59 281 0.0 3.0 0.04 0.04 0.04 87 1006.1
20260902214535 59 281 0.0 4.0 0.04 0.04 0.04 87 1006.0
20260902214036 60 280 0.0 4.0 0.03 0.03 0.03 89 1005.9
20260902213532 60 284 1.0 4.0 0.03 0.03 0.03 88 1006.0
20260902213032 60 284 2.0 7.0 0.03 0.03 0.03 87 1005.8
20260902212531 60 287 3.0 7.0 0.02 0.02 0.02 86 1005.7
20260902211537 61 306 2.0 6.0 0.02 0.02 0.02 83 1005.6
20260902211036 61 318 3.0 6.0 0.02 0.02 0.02 80 1005.5
20260902210531 62 279 2.0 7.0 0.01 0.01 0.01 79 1005.6
20260902210030 62 256 3.0 9.0 0.01 0.01 0.01 78 1005.7
20260902205530 63 240 2.0 9.0 0.00 0.00 0.00 75 1005.6
20260902205031 63 261 3.0 7.0 0.00 0.00 0.00 76 1005.6
20260902204530 64 254 1.0 9.0 0.00 0.00 0.00 75 1005.7
20260902204030 64 248 3.0 9.0 0.00 0.00 0.00 73 1005.6
20260902203532 64 269 5.0 9.0 0.00 0.00 0.00 71 1005.7
20260902203029 65 236 4.0 9.0 0.00 0.00 0.00 72 1005.7
20260902202529 65 299 2.0 5.0 0.00 0.00 0.00 72 1005.6
20260902201537 66 295 4.0 8.0 0.00 0.00 0.00 69 1005.5
20260902201029 67 313 3.0 8.0 0.00 0.00 0.00 67 1005.6
20260902200533 67 292 4.0 7.0 0.00 0.00 0.00 63 1005.6
20260902200033 67 286 3.0 7.0 0.00 0.00 0.00 64 1005.6
20260902195528 67 275 3.0 7.0 0.00 0.00 0.00 65 1005.5
20260902195028 67 267 3.0 8.0 0.00 0.00 0.00 65 1005.8
20260902194532 67 255 4.0 9.0 0.00 0.00 0.00 64 1005.8
20260902194028 67 288 6.0 9.0 0.00 0.00 0.00 65 1005.8
20260902193527 67 277 2.0 7.0 0.00 0.00 0.00 65 1006.0
20260902193027 68 288 2.0 5.0 0.00 0.00 0.00 64 1006.0
20260902192526 68 292 1.0 5.0 0.00 0.00 0.00 64 1006.0
20260902191531 69 294 3.0 7.0 0.00 0.00 0.00 62 1006.0
20260902191027 69 304 3.0 5.0 0.00 0.00 0.00 62 1005.9
20260902190532 69 303 2.0 6.0 0.00 0.00 0.00 61 1006.0
20260902190026 69 304 4.0 6.0 0.00 0.00 0.00 61 1006.0
20260902185525 68 344 1.0 4.0 0.00 0.00 0.00 64 1006.0
20260902185025 67 344 1.0 3.0 0.00 0.00 0.00 63 1006.2
20260902184523 67 344 0.0 3.0 0.00 0.00 0.00 65 1006.2
20260902184023 67 344 1.0 4.0 0.00 0.00 0.00 66 1006.2
20260902183521 66 342 0.0 4.0 0.00 0.00 0.00 67 1006.2
20260902183023 66 338 1.0 4.0 0.00 0.00 0.00 67 1006.3
20260902182520 66 15 0.0 5.0 0.00 0.00 0.00 69 1006.4
20260902181518 66 16 2.0 5.0 0.00 0.00 0.00 70 1006.4
20260902181017 65 39 2.0 7.0 0.00 0.00 0.00 71 1006.4
20260902180517 65 59 4.0 9.0 0.00 0.00 0.00 71 1006.5
20260902180015 65 35 4.0 9.0 0.00 0.00 0.00 73 1006.4
20260902175516 65 44 0.0 5.0 0.00 0.00 0.00 74 1006.6
20260902175015 65 53 3.0 5.0 0.00 0.00 0.00 74 1006.6
20260902174515 65 79 1.0 6.0 0.00 0.00 0.00 74 1006.8
20260902174014 65 113 2.0 7.0 0.00 0.00 0.00 74 1006.8
20260902173514 65 146 1.0 6.0 0.00 0.00 0.00 75 1006.9
20260902173028 64 185 1.0 3.0 0.00 0.00 0.00 71 1007.0
20260902172514 64 186 0.0 4.0 0.00 0.00 0.00 73 1007.1
20260902171507 64 186 0.0 0.0 0.00 0.00 0.00 72 1007.1
20260902171006 64 186 0.0 5.0 0.00 0.00 0.00 74 1007.1
20260902170508 64 178 0.0 2.0 0.00 0.00 0.00 73 1007.1
20260902170008 63 178 0.0 5.0 0.00 0.00 0.00 75 1007.1
20260902165506 63 178 3.0 5.0 0.00 0.00 0.00 75 1007.2
20260902165005 63 148 1.0 5.0 0.00 0.00 0.00 75 1007.3
20260902164505 63 146 0.0 3.0 0.00 0.00 0.00 75 1007.5
20260902164004 63 146 0.0 3.0 0.00 0.00 0.00 75 1007.3
20260902163504 63 146 0.0 2.0 0.00 0.00 0.00 76 1007.2
20260902163004 63 146 0.0 5.0 0.00 0.00 0.00 75 1007.2
20260902162502 63 146 1.0 5.0 0.00 0.00 0.00 75 1007.3
20260902161506 63 147 0.0 4.0 0.00 0.00 0.00 76 1007.6
20260902161000 63 147 1.0 5.0 0.00 0.00 0.00 78 1007.6
20260902160559 63 147 2.0 5.0 0.00 0.00 0.00 76 1007.6
20260902160059 63 146 2.0 5.0 0.00 0.00 0.00 78 1007.7
20260902155558 63 146 0.0 5.0 0.00 0.00 0.00 77 1007.7
20260902155058 63 147 1.0 7.0 0.00 0.00 0.00 78 1007.8
20260902154600 63 148 2.0 8.0 0.00 0.00 0.00 79 1007.7
20260902154056 63 154 3.0 8.0 0.00 0.00 0.00 80 1007.7
20260902153557 62 148 3.0 7.0 0.00 0.00 0.00 79 1007.9
20260902153056 62 146 4.0 7.0 0.00 0.00 0.00 80 1007.9
20260902152554 62 146 0.0 3.0 0.00 0.00 0.00 82 1007.9
20260902151554 61 147 0.0 8.0 0.00 0.00 0.00 85 1008.0
20260902151053 60 161 3.0 7.0 0.00 0.00 0.00 85 1008.0
20260902150551 60 166 4.0 9.0 0.00 0.00 0.00 87 1008.1
20260902150049 60 169 1.0 2.0 0.00 0.00 0.00 89 1008.2
20260902145547 59 169 0.0 1.0 0.00 0.00 0.00 89 1008.3
20260902145047 58 169 0.0 3.0 0.00 0.00 0.00 90 1008.2
20260902144545 58 169 0.0 3.0 0.00 0.00 0.00 91 1008.3
20260902144043 58 169 1.0 4.0 0.00 0.00 0.00 91 1008.5
20260902143545 58 172 1.0 4.0 0.00 0.00 0.00 92 1008.6
20260902143043 57 181 0.0 4.0 0.00 0.00 0.00 93 1008.6
20260902142543 57 181 2.0 4.0 0.00 0.00 0.00 93 1008.6
20260902141540 57 199 2.0 4.0 0.00 0.00 0.00 94 1008.9
20260902141039 56 204 0.0 3.0 0.00 0.00 0.00 95 1008.9
20260902140539 56 204 0.0 3.0 0.00 0.00 0.00 95 1008.9
20260902140043 56 207 0.0 2.0 0.00 0.00 0.00 95 1008.9
20260902135536 56 207 0.0 2.0 0.00 0.00 0.00 96 1008.9
20260902135037 55 207 0.0 2.0 0.00 0.00 0.00 96 1008.9
20260902134535 55 207 0.0 0.0 0.00 0.00 0.00 96 1008.9
20260902134034 55 207 0.0 0.0 0.00 0.00 0.00 96 1009.0
20260902133533 55 207 0.0 0.0 0.00 0.00 0.00 96 1009.0
20260902133034 55 207 0.0 0.0 0.00 0.00 0.00 96 1009.1
20260902132537 55 207 0.0 1.0 0.00 0.00 0.00 96 1009.0
20260902131538 55 207 0.0 1.0 0.00 0.00 0.00 96 1009.0
20260902131036 55 207 0.0 3.0 0.00 0.00 0.00 96 1009.0
20260902130535 55 207 1.0 3.0 0.00 0.00 0.00 96 1009.0
20260902130041 55 207 0.0 2.0 0.00 0.00 0.00 96 1009.2
20260902125534 55 207 0.0 3.0 0.00 0.00 0.00 96 1009.1
20260902125036 55 207 1.0 3.0 0.00 0.00 0.00 95 1009.4
20260902124534 55 207 1.0 3.0 0.00 0.00 0.00 95 1009.3
20260902124032 55 207 0.0 0.0 0.00 0.00 0.00 95 1009.3
20260902123530 55 207 0.0 0.0 0.00 0.00 0.00 95 1009.3
20260902123029 56 207 0.0 0.0 0.00 0.00 0.00 94 1009.3
20260902122529 56 207 0.0 0.0 0.00 0.00 0.00 95 1009.4
20260902121525 56 207 0.0 0.0 0.00 0.00 0.00 94 1009.4
20260902121025 57 207 0.0 0.0 0.00 0.00 0.00 95 1009.5
20260902120525 57 207 0.0 0.0 0.00 0.00 0.00 95 1009.6
20260902120027 57 207 0.0 0.0 0.00 0.00 0.00 95 1009.5
20260902115524 57 207 0.0 0.0 0.00 0.00 0.00 95 1009.5
20260902115023 57 207 0.0 0.0 0.00 0.00 0.00 95 1009.6
20260902114543 57 207 0.0 0.0 0.00 0.00 0.00 94 1009.7
20260902114023 56 207 0.0 0.0 0.00 0.00 0.00 94 1009.7
20260902113522 57 207 0.0 0.0 0.00 0.00 0.00 94 1009.7
20260902113021 57 207 0.0 0.0 0.00 0.00 0.00 94 1009.7
20260902112521 57 207 0.0 1.0 0.00 0.00 0.00 94 1009.7
20260902111520 57 207 0.0 2.0 0.00 0.00 0.00 94 1009.9
20260902111018 57 207 0.0 2.0 0.00 0.00 0.00 94 1010.0
20260902110519 58 207 0.0 2.0 0.00 0.00 0.00 94 1009.9
20260902110025 57 207 0.0 0.0 0.00 0.00 0.00 94 1010.1
20260902105516 58 207 0.0 2.0 0.00 0.00 0.00 94 1010.2
20260902105018 57 207 0.0 2.0 0.00 0.00 0.00 94 1010.2
20260902104526 57 207 0.0 1.0 0.00 0.00 0.00 94 1010.2
20260902104016 57 207 0.0 1.0 0.00 0.00 0.00 94 1010.2
20260902103516 57 207 0.0 0.0 0.00 0.00 0.00 94 1010.2
20260902103022 57 207 0.0 1.0 0.00 0.00 0.00 94 1010.4
20260902102519 57 207 0.0 1.0 0.00 0.00 0.00 94 1010.3
20260902101517 57 207 0.0 1.0 0.00 0.00 0.00 94 1010.3
20260902101017 57 207 0.0 0.0 0.00 0.00 0.00 94 1010.4
20260902100516 57 226 0.0 0.0 0.00 0.00 0.00 92 1010.4
20260902100016 57 226 0.0 0.0 0.00 0.00 0.00 92 1010.4
20260902095516 58 225 0.0 0.0 0.00 0.00 0.00 92 1010.5
20260902095015 58 226 0.0 0.0 0.00 0.00 0.00 92 1010.6
20260902094514 58 226 0.0 0.0 0.00 0.00 0.00 92 1010.7
20260902094014 58 226 0.0 0.0 0.00 0.00 0.00 92 1010.6
20260902093513 58 226 0.0 0.0 0.00 0.00 0.00 92 1010.7
20260902093013 58 226 0.0 1.0 0.00 0.00 0.00 92 1010.7
20260902092513 58 226 0.0 1.0 0.00 0.00 0.00 92 1010.7